K4JJE Weather Reports


time (UTC)temp
F
wind
direction
speed
knots
gust
knots
rain 1hr
in
rain 24hr
in
rain mn
in
humidity
%
barometer
mb
20260906101501 65 0 0.0 0.0 0.00 0.01 0.00 68 1015.4
20260906100801 65 0 0.0 0.0 0.00 0.01 0.00 68 1015.4
20260906095401 65 0 0.0 0.0 0.00 0.01 0.00 68 1015.5
20260906094701 65 0 0.0 0.0 0.00 0.01 0.00 68 1015.5
20260906094001 65 0 0.0 0.0 0.00 0.01 0.00 68 1015.5
20260906092601 65 0 0.0 0.0 0.00 0.01 0.00 68 1015.4
20260906091201 66 0 0.0 0.0 0.00 0.01 0.00 68 1015.3
20260906090501 66 94 0.0 0.9 0.00 0.01 0.00 68 1015.2
20260906085801 66 94 0.0 1.7 0.00 0.01 0.00 68 1015.3
20260906085101 66 94 0.0 1.7 0.00 0.01 0.00 68 1015.2
20260906084401 66 94 0.0 1.7 0.00 0.01 0.00 68 1015.1
20260906083001 66 0 0.0 0.0 0.00 0.01 0.00 69 1015.2
20260906082301 66 0 0.0 0.0 0.00 0.01 0.00 69 1015.2
20260906081601 66 94 0.0 0.9 0.00 0.01 0.00 69 1015.3
20260906080901 66 94 0.0 0.9 0.00 0.01 0.00 69 1015.2
20260906080201 66 0 0.0 0.0 0.00 0.01 0.00 68 1015.2
20260906075501 66 0 0.0 0.0 0.00 0.01 0.00 68 1015.1
20260906074801 66 0 0.0 0.0 0.00 0.01 0.00 69 1015.1
20260906074101 66 0 0.0 0.0 0.00 0.01 0.00 69 1015.0
20260906073401 66 94 0.0 0.9 0.00 0.01 0.00 69 1014.9
20260906072701 66 94 0.0 2.6 0.00 0.01 0.00 69 1014.9
20260906072001 66 94 0.0 0.9 0.00 0.01 0.00 69 1015.0
20260906070601 66 0 0.0 0.0 0.00 0.01 0.00 69 1015.2
20260906065901 66 98 0.9 2.6 0.00 0.01 0.00 69 1015.3
20260906065201 66 102 0.0 1.7 0.00 0.01 0.00 69 1015.3
20260906064501 66 99 0.0 0.9 0.00 0.01 0.00 69 1015.3
20260906063801 66 99 0.0 0.9 0.00 0.01 0.00 69 1015.3
20260906063101 66 98 0.0 0.9 0.00 0.01 0.00 69 1015.2
20260906062401 66 99 0.0 0.9 0.00 0.01 0.00 69 1015.3
20260906061001 66 97 0.0 1.7 0.00 0.01 0.00 70 1015.4
20260906060301 67 93 0.9 4.3 0.00 0.01 0.00 70 1015.5
20260906055601 66 81 1.7 4.3 0.00 0.01 0.00 70 1015.5
20260906054901 67 45 0.9 3.5 0.00 0.01 0.00 70 1015.7
20260906054201 67 24 0.9 3.5 0.00 0.01 0.00 70 1016.0
20260906053501 67 22 0.0 1.7 0.00 0.01 0.00 70 1016.1
20260906052801 67 0 0.0 0.0 0.00 0.01 0.00 70 1016.2
20260906052101 67 0 0.0 0.0 0.00 0.01 0.00 70 1016.2
20260906051401 67 0 0.0 0.0 0.00 0.01 0.00 70 1016.3
20260906050701 67 0 0.0 0.0 0.00 0.01 0.00 70 1016.3
20260906050001 67 0 0.0 0.0 0.00 0.01 0.00 70 1016.3
20260906045301 67 0 0.0 0.0 0.00 0.01 0.00 70 1016.2
20260906044601 67 0 0.0 0.0 0.00 0.01 0.00 71 1016.1
20260906043901 68 0 0.0 0.0 0.00 0.01 0.00 70 1016.2
20260906043200 68 22 0.0 0.9 0.00 0.01 0.00 70 1016.1
20260906042501 68 55 0.0 3.5 0.00 0.01 0.00 70 1016.2
20260906041801 68 82 0.9 3.5 0.01 0.01 0.00 70 1016.1
20260906041101 68 75 0.9 4.3 0.01 0.01 0.00 70 1016.0
20260906040401 68 49 0.0 4.3 0.01 0.01 0.00 70 1016.2
20260906035701 68 47 0.0 3.5 0.01 0.01 0.01 71 1016.2
20260906035001 68 46 0.9 1.7 0.01 0.01 0.01 71 1016.2
20260906034301 68 45 0.0 1.7 0.01 0.01 0.01 71 1016.2
20260906033600 68 45 0.0 1.7 0.01 0.01 0.01 71 1016.3
20260906032901 68 58 0.0 3.5 0.01 0.01 0.01 71 1016.2
20260906031501 68 79 0.0 1.7 0.00 0.00 0.00 71 1016.3
20260906030801 69 79 0.0 1.7 0.00 0.00 0.00 72 1016.3
20260906030101 69 79 0.0 1.7 0.00 0.00 0.00 72 1016.3
20260906025401 69 0 0.0 0.0 0.00 0.00 0.00 72 1016.3
20260906024001 69 79 0.0 1.7 0.00 0.00 0.00 72 1016.4
20260906023301 69 79 0.0 1.7 0.00 0.00 0.00 72 1016.2
20260906021900 69 79 0.0 1.7 0.00 0.00 0.00 72 1016.0
20260906021201 70 0 0.0 0.0 0.00 0.00 0.00 72 1016.0
20260906020501 70 79 0.0 0.9 0.00 0.00 0.00 73 1016.1
20260906015800 70 79 0.0 0.9 0.00 0.00 0.00 73 1015.8
20260906015101 70 79 0.0 0.9 0.00 0.00 0.00 73 1015.8
20260906013701 70 78 0.0 3.5 0.00 0.00 0.00 73 1015.7
20260906013000 70 78 0.9 3.5 0.00 0.00 0.00 73 1015.6
20260906012300 70 77 0.0 3.5 0.00 0.00 0.00 73 1015.5
20260906011601 70 0 0.0 0.0 0.00 0.00 0.00 74 1015.4
20260906010900 71 0 0.0 0.0 0.00 0.00 0.00 74 1015.4
20260906010201 71 0 0.0 0.0 0.00 0.00 0.00 74 1015.4
20260906005500 71 77 0.0 1.7 0.00 0.00 0.00 75 1015.3
20260906004100 71 77 0.0 1.7 0.00 0.00 0.00 75 1015.0
20260906003400 72 76 0.0 3.5 0.00 0.00 0.00 75 1015.0
20260906002701 72 90 0.0 0.9 0.00 0.00 0.00 76 1015.1
20260906002001 72 90 0.0 0.9 0.00 0.00 0.00 76 1015.1
20260905235900 73 90 0.0 0.9 0.00 0.00 0.00 77 1015.2
20260905235200 74 90 0.0 0.9 0.00 0.00 0.00 78 1015.2
20260905234502 74 0 0.0 0.0 0.00 0.00 0.00 78 1014.9
20260905233802 74 89 0.9 1.7 0.00 0.00 0.00 79 1014.9
20260905233100 74 90 1.7 4.3 0.00 0.00 0.00 79 1014.9
20260905232401 74 90 1.7 7.0 0.00 0.00 0.00 79 1015.1
20260905231700 75 84 2.6 7.0 0.00 0.00 0.00 80 1014.8
20260905231000 75 66 2.6 5.2 0.00 0.00 0.00 80 1014.9
20260905230300 75 76 1.7 5.2 0.00 0.00 0.00 80 1014.9
20260905225600 75 82 0.9 4.3 0.00 0.00 0.00 80 1015.1
20260905223501 76 82 0.9 3.5 0.00 0.00 0.00 80 1015.1
20260905222801 76 82 0.0 1.7 0.00 0.00 0.00 80 1015.1
20260905222100 76 58 0.9 4.3 0.00 0.00 0.00 80 1015.1
20260905221400 76 12 0.0 3.5 0.00 0.00 0.00 80 1015.0
20260905220700 76 12 0.0 0.9 0.00 0.00 0.00 80 1015.1
20260905220000 77 0 0.0 0.0 0.00 0.00 0.00 80 1015.2
20260905215301 77 12 0.9 3.5 0.00 0.00 0.00 79 1015.4
20260905214600 77 25 1.7 5.2 0.00 0.00 0.00 78 1015.4
20260905213900 77 74 2.6 7.0 0.00 0.00 0.00 78 1015.1
20260905213200 77 99 1.7 5.2 0.00 0.00 0.00 77 1015.1
20260905212500 78 73 2.6 5.2 0.00 0.00 0.00 77 1015.2
20260905211800 78 33 0.9 4.3 0.00 0.00 0.00 76 1015.2
20260905210400 78 38 0.9 4.3 0.00 0.00 0.00 76 1015.0
20260905203342 79 77 5.2 13.0 0.00 0.00 0.00 76 1015.8
20260905202643 79 73 3.5 13.0 0.00 0.00 0.00 77 1015.9
20260905201231 81 90 3.5 7.0 0.00 0.00 0.00 77 1016.3
20260905200542 82 83 1.7 5.2 0.00 0.00 0.00 77 1016.2
20260905195831 82 67 0.9 4.3 0.00 0.00 0.00 76 1016.0
20260905195132 83 66 2.6 6.1 0.00 0.00 0.00 75 1015.7
20260905184138 81 58 2.6 5.2 0.00 0.00 0.00 77 1016.0
20260905183438 82 56 2.6 6.1 0.00 0.00 0.00 74 1015.8
20260905182738 83 65 2.6 6.1 0.00 0.00 0.00 72 1015.6
20260905182038 86 28 1.7 6.1 0.00 0.00 0.00 69 1015.7
20260905181338 89 119 1.7 6.1 0.00 0.00 0.00 66 1015.7
20260905180638 91 231 2.6 7.8 0.00 0.00 0.00 61 1016.0
20260905175938 91 233 2.6 7.8 0.00 0.00 0.00 64 1015.9
20260905174538 90 215 4.3 7.8 0.00 0.00 0.00 66 1016.2
20260905173138 90 227 3.5 8.7 0.00 0.00 0.00 68 1016.5
20260905172438 89 212 3.5 8.7 0.00 0.00 0.00 67 1016.5
20260905171738 89 215 2.6 7.0 0.00 0.00 0.00 69 1016.4
20260905171038 88 239 2.6 7.0 0.00 0.00 0.00 65 1016.4
20260905170338 88 235 3.5 7.8 0.00 0.00 0.00 70 1016.7
20260905165638 88 243 4.3 7.8 0.00 0.00 0.00 68 1016.7
20260905164938 88 256 2.6 7.8 0.00 0.00 0.00 68 1017.0
20260905164238 87 247 1.7 5.2 0.00 0.00 0.00 71 1017.2
20260905163538 87 246 2.6 7.8 0.00 0.00 0.00 71 1017.1
20260905162838 86 242 2.6 7.8 0.00 0.00 0.00 72 1017.2
20260905162138 86 270 2.6 7.8 0.00 0.00 0.00 70 1017.3
20260905160738 86 237 2.6 7.0 0.00 0.00 0.00 71 1017.4
20260905160038 86 270 2.6 7.8 0.00 0.00 0.00 71 1017.5
20260905155338 86 274 2.6 7.8 0.00 0.00 0.00 72 1017.6
20260905154638 86 281 1.7 6.1 0.00 0.00 0.00 72 1017.6
20260905153937 85 300 0.9 5.2 0.00 0.00 0.00 73 1017.6
20260905153238 84 280 1.7 5.2 0.00 0.00 0.00 74 1017.7
20260905152538 83 238 1.7 6.1 0.00 0.00 0.00 73 1017.9
20260905151838 83 254 0.9 4.3 0.00 0.00 0.00 74 1017.9
20260905151138 82 273 1.7 5.2 0.00 0.00 0.00 75 1017.9
20260905145738 81 265 0.9 4.3 0.00 0.00 0.00 75 1018.0
20260905145038 81 233 0.9 5.2 0.00 0.00 0.00 75 1017.9
20260905143638 80 240 1.7 4.3 0.00 0.00 0.00 76 1018.1
20260905142938 79 243 0.9 5.2 0.00 0.00 0.00 76 1018.1
20260905142238 79 263 0.9 3.5 0.00 0.00 0.00 76 1018.2
20260905141538 78 286 0.0 4.3 0.00 0.00 0.00 76 1018.1
20260905135437 75 216 0.9 3.5 0.00 0.00 0.00 77 1018.4
20260905134738 74 215 0.9 3.5 0.00 0.00 0.00 76 1018.4
20260905133337 73 175 0.9 2.6 0.00 0.00 0.00 73 1018.7
20260905131937 72 161 0.0 1.7 0.00 0.00 0.00 72 1018.7
20260905130538 72 80 0.0 1.7 0.00 0.00 0.00 72 1018.6
20260905125137 71 65 0.0 0.9 0.00 0.00 0.00 67 1018.5
20260905123737 70 64 0.0 1.7 0.00 0.00 0.00 67 1018.5
20260905123038 69 65 0.0 1.7 0.00 0.00 0.00 67 1018.4
20260905122338 68 65 0.0 0.9 0.00 0.00 0.00 68 1018.4
20260905121637 68 65 0.0 0.9 0.00 0.00 0.00 68 1018.4
20260905120937 67 0 0.0 0.0 0.00 0.00 0.00 68 1018.3
20260905120238 67 65 0.0 0.9 0.00 0.00 0.00 68 1018.2
20260905115537 66 65 0.0 0.9 0.00 0.00 0.00 68 1018.2
20260905114137 66 65 0.0 1.7 0.00 0.01 0.00 68 1018.0
20260905113438 66 0 0.0 0.0 0.00 0.01 0.00 69 1017.8
20260905112738 66 64 0.0 0.9 0.00 0.01 0.00 69 1017.6
20260905112037 66 65 0.0 1.7 0.00 0.01 0.00 69 1017.6
20260905110637 66 65 0.0 0.9 0.00 0.01 0.00 69 1017.4
20260905105937 66 0 0.0 0.0 0.00 0.01 0.00 69 1017.5
20260905104537 66 65 0.0 0.9 0.00 0.01 0.00 69 1017.3
20260905103138 66 65 0.0 0.9 0.00 0.01 0.00 69 1017.3